Regional Weather Roundup
Issued by NWS

Home | Current Version | Previous Version | Graphics & Text | Print | Product List | Glossary On
Versions: 1 2 3 4 5 6 7 8 9 10 11 12 13 14 15 16 17 18 19 20 21 22 23 24 25 26 27 28 29 30 31 32 33 34 35 36 37 38 39 40 41 42 43 44 45 46 47 48 49 50
000
ASUS45 KBOU 311607
RWRCO

WEATHER ROUNDUP FOR COLORADO
NATIONAL WEATHER SERVICE DENVER/BOULDER CO
1000 AM MDT MON AUG 31 2015

NOTE: "FAIR" INDICATES FEW OR NO CLOUDS BELOW 12000 FEET WITH NO
SIGNIFICANT WEATHER AND/OR OBSTRUCTIONS TO VISIBILITY.

COZ001>005-013-030-031-311700-
...NORTHWEST COLORADO...

CITY           SKY/WX    TMP DP  RH WIND       PRES   REMARKS
CRAIG          MOSUNNY   67  51  56 E8        30.24S
HAYDEN         NOT AVBL
MEEKER         CLOUDY    64  53  67 CALM      30.26S
MOUNT WERNER   NOT AVBL
STEAMBOAT SPGS MOSUNNY   57  52  85 E8        30.30S
WALDEN         CLOUDY    55  46  71 E5        30.36R
$$

COZ006>008-011-311700-
...WEST CENTRAL VALLEYS...

CITY           SKY/WX    TMP DP  RH WIND       PRES   REMARKS
GRAND JUNCTION LGT RAIN  62  60  93 E9        30.19S
MONTROSE       LGT RAIN  63  56  78 CALM      30.26R
EAGLE          MOSUNNY   61  55  82 CALM      30.32S
RIFLE          PTSUNNY   65  57  75 E5        30.24S
DELTA          LGT RAIN  70  56  60 CALM      30.23R
NUCLA          CLOUDY    72  46  40 CALM      30.28R
$$

COZ017>023-064>068-311700-
...SOUTHWEST COLORADO...

CITY           SKY/WX    TMP DP  RH WIND       PRES   REMARKS
DURANGO        PTSUNNY   65  49  56 CALM      30.29R
CORTEZ         SUNNY     72  52  49 CALM      30.24R
PAGOSA SPRINGS MOSUNNY   67  46  46 S3        30.36S
TELLURIDE      PTSUNNY   63  45  51 CALM      30.45S
WOLF CREEK PAS MOSUNNY   50  41  71 S8        30.65R
$$

COZ009-010-012-014-032>034-037-058>063-311700-
...CENTRAL COLORADO...

CITY           SKY/WX    TMP DP  RH WIND       PRES   REMARKS
ASPEN          PTSUNNY   59  52  77 CALM      30.35R
BUENA VISTA    PTSUNNY   66  44  44 SE3       30.34S
COPPER MTN     CLOUDY    46  41  81 W8G17     30.62R
BERTHOUD PASS  PTSUNNY   37  28  70 NW12      30.66R
COTTONWOOD PAS PTSUNNY   61  43  51 E3        30.47R
GUNNISON       MOSUNNY   61  48  63 CALM      30.38S
KREMMLING      CLOUDY    59  48  67 CALM      30.36R
LEADVILLE      CLOUDY    55  43  63 N9        30.47R
MONARCH PASS   MOSUNNY   46  39  76 W22       30.71R
SALIDA         PTSUNNY   67  46  45 N7        30.38S
SUNLIGHT       CLOUDY    54  50  87 CALM      30.57R
WILKERSON PASS CLOUDY    52  36  54 W3        30.59R
$$

COZ069>075-311700-
...SAN LUIS VALLEY/SANGRE DE CRISTO MOUNTAINS...

CITY           SKY/WX    TMP DP  RH WIND       PRES   REMARKS
ALAMOSA        MOSUNNY   67  45  45 E6        30.32S
LA VETA PASS   PTSUNNY   55  39  54 MISG      30.48R
SAGUACHE       NOT AVBL
$$

COZ035-036-038>040-311700-
...NORTHERN COLORADO FRONT RANGE...

CITY           SKY/WX    TMP DP  RH WIND       PRES   REMARKS
DENVER INTL AP CLOUDY    76  45  33 E6        30.13R
DMNS CITY PARK   N/A     75  51  43 E6G13     30.12S
AURORA         PTSUNNY   75  47  36 SE6       30.16R
FRONT RANGE AP PTSUNNY   75  45  33 CALM      30.15R
ERIE MUNI ARPT CLOUDY    76  48  38 SE10      30.11R
BOULDER MUN AP CLOUDY    73  50  43 CALM      30.11S
CENTENNIAL     CLOUDY    74  49  41 SE8       30.16S
BROOMFIELD     PTSUNNY   75  48  38 E6        30.15R
FORT COLLINS   CLOUDY    72  52  49 S3        30.11R
LONGMONT       CLOUDY    75  52  43 CALM      30.11S
$$

COZ041-046-047-076>085-087-088-311700-
...PIKES PEAK/PALMER DIVIDE AND SOUTHERN FOOTHILLS...

CITY           SKY/WX    TMP DP  RH WIND       PRES   REMARKS
COLO. SPRINGS  CLOUDY    74  44  34 SW3       30.19R
A. F. ACADEMY  LGT RAIN  73  46  38 N13       30.21R
ELLICOTT         N/A      1   1 100 N14       30.19  WCI -17
FALCON         CLOUDY    72  44  37 MISG      30.26R
FORT CARSON    CLOUDY    74  47  37 W7        30.15R
LIMON          MOSUNNY   75  47  36 N16G22    30.13R
MONUMENT HILL  CLOUDY    68  43  40 N3        30.26R
TRINIDAD       MOSUNNY   83  45  26 NW6       30.14R
$$

COZ042>045-048>051-090-091-311700-
...NORTHEAST COLORADO...

CITY           SKY/WX    TMP DP  RH WIND       PRES   REMARKS
GREELEY ARPT   CLOUDY    73  57  56 SE6       30.08F
AKRON          PTSUNNY   75  51  43 N15       30.08R
BURLINGTON     SUNNY     81  51  35 N10       30.02S
WRAY           SUNNY     87  47  25 N16G25    29.99S
STERLING       PTSUNNY   77  54  44 CALM      30.02R
HOLYOKE        SUNNY     86  48  26 NW17G25   30.00R
FORT MORGAN    PTSUNNY   79  47  31 NW9       30.08R
$$

COZ086-089-092>099-311700-
...SOUTHEAST COLORADO...

CITY           SKY/WX    TMP DP  RH WIND       PRES   REMARKS
PUEBLO         CLOUDY    82  51  34 SW10      30.06S
LA JUNTA       SUNNY     84  50  30 NW13G20   30.01S
LAMAR          SUNNY     74  55  51 NW5       29.96R HAZE
SPRINGFIELD    NOT AVBL
$$




USA.gov is the U.S. government's official web portal to all federal, state and local government web resources and services.